Regional Weather Roundup
Issued by NWS

Home | Current Version | Previous Version | Text Only | Print | Product List | Glossary Off
Versions: 1 2 3 4 5 6 7 8 9 10 11 12 13 14 15 16 17 18 19 20 21 22 23 24 25 26 27

000
ASUS45 KCYS 251210
RWRWY

WYOMING REGIONAL WEATHER ROUNDUP
NATIONAL WEATHER SERVICE CHEYENNE WY
600 AM MDT WED APR 25 2018

NOTE:  "FAIR" INDICATES FEW OR NO CLOUDS BELOW 12,000 FEET
WITH NO SIGNIFICANT WEATHER AND/OR OBSTRUCTIONS TO VISIBILITY.

WYZ001-251300-
YELLOWSTONE NATIONAL PARK

CITY           SKY/WX    TMP DP  RH WIND       PRES   REMARKS
LK YELLOWSTONE   N/A     12   9  87 CALM      30.38F
6HR MIN TEMP:  12; 6HR MAX TEMP:  20;

W YELLOWSTONE  NOT AVBL

$$
WYZ002>013-054>058-071-098>099-251300-
NORTHERN WYOMING

CITY           SKY/WX    TMP DP  RH WIND       PRES   REMARKS
JACKSON        FAIR      22  18  85 CALM      30.37F
CODY           FAIR      39  16  39 SW8       30.24F WCI  33
GREYBULL       FAIR      31  28  89 SE3       30.28F
6HR MIN TEMP:  31; 6HR MAX TEMP:  38;

WORLAND        FAIR      27  24  89 CALM      30.28F
6HR MIN TEMP:  26; 6HR MAX TEMP:  35;

SHERIDAN       FAIR      24  19  81 CALM      30.18F
6HR MIN TEMP:  22; 6HR MAX TEMP:  35;

BUFFALO        FAIR      33   9  36 SW7       30.19F WCI  27
6HR MIN TEMP:  27; 6HR MAX TEMP:  38;

GILLETTE       FAIR      30  23  75 SE10      30.22F WCI  21
6HR MIN TEMP:  28; 6HR MAX TEMP:  32;

HULETT         FAIR      37  25  60 S17       30.25F WCI  28
NEWCASTLE      FAIR      30  21  69 E5        30.31F WCI  25

$$
WYZ014>020-022>026-101>103-251300-
CENTRAL WYOMING

CITY           SKY/WX    TMP DP  RH WIND       PRES   REMARKS
BIG PINEY      FAIR      18  13  80 CALM      30.39S
6HR MIN TEMP:  15; 6HR MAX TEMP:  30;

PINEDALE       FAIR      18  14  86 NW6       30.40S WCI   9
DUBOIS         FAIR      28  19  69 W10       30.30F WCI  19
LANDER         FAIR      29  14  53 CALM      30.29F
6HR MIN TEMP:  27; 6HR MAX TEMP:  35;

RIVERTON       FAIR      27  20  75 SW3       30.31F
6HR MIN TEMP:  25; 6HR MAX TEMP:  34;

CASPER         FAIR      31  23  72 SW16      30.30F WCI  20
6HR MIN TEMP:  24; 6HR MAX TEMP:  31;

DOUGLAS        FAIR      15  14  95 CALM      30.31F
6HR MIN TEMP:  15; 6HR MAX TEMP:  25;


$$
WYZ021-027>030-104>119-251300-
SOUTHERN WYOMING

CITY           SKY/WX    TMP DP  RH WIND       PRES   REMARKS
EVANSTON       FAIR      30  19  63 E9        30.34S WCI  22
6HR MIN TEMP:  30; 6HR MAX TEMP:  38;

KEMMERER       FAIR      25  19  80 N9        30.37R WCI  15
FORT BRIDGER   FAIR      27  18  69 N6        30.38F WCI  20
ROCK SPRINGS   FAIR      23  16  74 CALM      30.37F
6HR MIN TEMP:  23; 6HR MAX TEMP:  31;

DIXON          FAIR      17  14  88 NE3       30.42F
RAWLINS        FAIR      14  10  84 CALM      30.37F
6HR MIN TEMP:  14; 6HR MAX TEMP:  23;

SARATOGA       FAIR      18  14  86 CALM      30.39S
LARAMIE        FAIR      17  15  92 SE6       30.33S WCI   9
6HR MIN TEMP:  14; 6HR MAX TEMP:  22;

CHEYENNE       FAIR      23  20  88 NW3       30.32F
6HR MIN TEMP:  22; 6HR MAX TEMP:  29;

TORRINGTON     FAIR      23  22  96 CALM      30.32F FOG
6HR MIN TEMP:  22; 6HR MAX TEMP:  34;

PINE BLUFFS    FAIR      23  21  93 MISG      30.34F

$$




USA.gov is the U.S. government's official web portal to all federal, state and local government web resources and services.